Weather reports worldwide

Advertisment
Toledo, Spain (8272): temperature & dewpoint: 29.06.2020 15:00:00 - 05.07.2020 15:00:00 (CEST)Toledo, Spain (8272): wind speed: 29.06.2020 15:00:00 - 05.07.2020 15:00:00 (CEST)Toledo, Spain (8272): wind direction: 29.06.2020 15:00:00 - 05.07.2020 15:00:00 (CEST)Toledo, Spain (8272): reduced air pressure: 29.06.2020 15:00:00 - 05.07.2020 15:00:00 (CEST)Toledo, Spain (8272): visibility: 29.06.2020 15:00:00 - 05.07.2020 15:00:00 (CEST)Toledo, Spain (8272): precipitation: 29.06.2020 15:00:00 - 05.07.2020 15:00:00 (CEST)
Date & Time tt [°C] td [°C] ff [km/h] ff [kn] dd ppp [hPa] vv [km] rr [mm]
05.07.2020 15:00:00 36,4 9,1 8 4 SSW 1014,5 20 0,0
05.07.2020 14:00:00 34,4 13,3 13 7 SE 1015,8 20 -
05.07.2020 13:00:00 32,0 14,6 11 6 ESE 1016,9 20 0,0
05.07.2020 12:00:00 29,6 15,3 13 7 ESE 1017,9 20 0,0
05.07.2020 11:00:00 27,5 15,8 11 6 E 1018,6 20 -
05.07.2020 10:00:00 25,6 12,8 13 7 ESE 1019,3 20 0,0
05.07.2020 09:00:00 23,1 5,9 9 5 E 1019,9 20 0,0
05.07.2020 08:00:00 19,9 5,9 11 6 ESE 1020,4 20 -
05.07.2020 07:00:00 20,0 5,2 9 5 ESE 1020,1 20 0,0
05.07.2020 06:00:00 21,0 7,9 5 3 E 1019,5 20 0,0
05.07.2020 05:00:00 21,8 5,2 13 7 E 1019,3 20 -
05.07.2020 04:00:00 22,3 4,8 5 3 SSW 1019,2 20 0,0
05.07.2020 03:00:00 24,0 1,0 8 4 E 1018,9 20 0,0
05.07.2020 02:00:00 25,3 5,5 4 2 SSW 1018,4 20 -
05.07.2020 01:00:00 26,5 3,7 2 1 NE 1017,9 20 0,0
05.07.2020 00:00:00 27,8 4,1 13 7 NNE 1017,3 20 0,0
04.07.2020 23:00:00 28,8 4,3 9 5 E 1016,6 20 -
04.07.2020 22:00:00 31,7 3,6 9 5 NE 1015,4 20 0,0
04.07.2020 21:00:00 35,0 4,5 9 5 N 1014,5 20 0,0
04.07.2020 20:00:00 35,9 4,2 8 4 NNW 1014,3 20 -
04.07.2020 19:00:00 36,2 4,5 9 5 SE 1014,4 20 0,0
04.07.2020 18:00:00 36,5 5,7 13 7 WNW 1014,9 20 0,0
04.07.2020 17:00:00 36,1 5,4 13 7 WSW 1015,4 20 -
04.07.2020 16:00:00 35,2 6,5 8 4 WNW 1016,0 20 0,0
04.07.2020 15:00:00 34,4 8,9 8 4 ENE 1016,7 20 0,0
04.07.2020 14:00:00 33,1 11,6 5 3 S 1017,6 20 -
04.07.2020 13:00:00 31,3 11,7 11 6 SE 1018,7 20 0,0
04.07.2020 12:00:00 28,9 15,8 11 6 ESE 1019,3 20 0,0
04.07.2020 11:00:00 26,4 16,0 9 5 E 1019,8 20 -
04.07.2020 10:00:00 24,5 13,7 11 6 E 1020,3 20 0,0
04.07.2020 09:00:00 22,5 8,2 9 5 E 1020,5 20 0,0
04.07.2020 08:00:00 19,1 6,6 8 4 E 1021,0 20 -
04.07.2020 07:00:00 18,2 5,4 8 4 E 1020,7 20 0,0
04.07.2020 06:00:00 19,1 4,8 11 6 E 1019,9 20 0,0
04.07.2020 05:00:00 20,5 4,5 8 4 ESE 1019,5 20 -
04.07.2020 04:00:00 21,5 4,1 9 5 E 1019,2 20 0,0
04.07.2020 03:00:00 22,5 3,6 4 2 NE 1018,8 20 0,0
04.07.2020 02:00:00 23,3 2,2 4 2 N 1018,4 20 -
04.07.2020 01:00:00 24,1 2,8 2 1 ENE 1017,7 20 0,0
04.07.2020 00:00:00 25,6 1,6 15 8 N 1016,8 20 0,0
03.07.2020 23:00:00 27,9 2,9 0 0 N 1015,8 20 -
03.07.2020 22:00:00 29,2 3,2 8 4 N 1015,1 20 0,0
03.07.2020 21:00:00 32,8 4,5 9 5 NW 1014,2 20 0,0
03.07.2020 20:00:00 33,7 2,5 11 6 NW 1013,7 20 -
03.07.2020 19:00:00 34,2 2,9 8 4 NW 1013,5 20 0,0
03.07.2020 18:00:00 33,4 5,0 9 5 NNE 1013,8 20 0,0
03.07.2020 17:00:00 33,5 6,7 4 2 S 1014,0 20 -
03.07.2020 16:00:00 32,5 8,0 5 3 SSW 1014,6 20 0,0
03.07.2020 15:00:00 31,0 9,2 5 3 W 1015,4 20 0,0
03.07.2020 14:00:00 30,0 10,0 13 7 S 1016,0 20 -
03.07.2020 13:00:00 28,3 10,0 5 3 W 1016,6 20 0,0
03.07.2020 12:00:00 26,5 10,2 9 5 NE 1017,2 20 0,0
03.07.2020 11:00:00 23,8 10,8 11 6 NE 1017,9 20 -
03.07.2020 10:00:00 21,8 10,9 13 7 ENE 1018,5 20 0,0
03.07.2020 09:00:00 19,8 10,5 13 7 ENE 1018,6 20 0,0
03.07.2020 08:00:00 18,1 10,5 15 8 NE 1018,3 20 -
03.07.2020 07:00:00 17,7 10,3 13 7 NE 1018,0 20 0,0
03.07.2020 06:00:00 18,7 5,5 4 2 N 1017,2 20 0,0
03.07.2020 05:00:00 19,2 5,3 5 3 ESE 1016,9 20 -
03.07.2020 04:00:00 20,3 5,5 5 3 W 1016,5 20 0,0
03.07.2020 03:00:00 22,0 5,0 13 7 NNW 1016,2 20 0,0
03.07.2020 02:00:00 22,7 4,7 9 5 NW 1016,0 20 -
03.07.2020 01:00:00 23,8 6,6 11 6 WNW 1015,6 20 0,0
03.07.2020 00:00:00 24,8 7,4 11 6 WNW 1014,8 20 0,0
02.07.2020 23:00:00 26,6 7,6 18 10 WNW 1013,5 20 -
02.07.2020 22:00:00 28,2 6,3 21 11 WNW 1012,5 20 0,0
02.07.2020 21:00:00 30,3 8,1 28 15 WNW 1011,6 20 0,0
02.07.2020 20:00:00 31,6 9,2 29 16 WNW 1010,9 20 -
02.07.2020 19:00:00 32,4 7,3 28 15 W 1010,7 20 0,0
02.07.2020 18:00:00 33,1 6,4 31 17 W 1010,6 20 0,0
02.07.2020 17:00:00 33,0 6,3 29 16 WNW 1010,8 20 -
02.07.2020 16:00:00 32,9 6,2 31 17 WNW 1011,4 20 0,0
02.07.2020 15:00:00 32,6 7,4 29 16 WNW 1011,7 20 0,0
02.07.2020 14:00:00 32,1 7,0 24 13 W 1012,1 20 -
02.07.2020 13:00:00 30,9 5,3 24 13 W 1012,6 20 0,0
02.07.2020 12:00:00 29,7 9,2 16 9 W 1012,9 20 0,0
02.07.2020 11:00:00 28,0 11,1 16 9 WNW 1013,1 20 -
02.07.2020 10:00:00 26,1 11,1 13 7 WNW 1013,4 20 0,0
02.07.2020 09:00:00 24,1 10,4 5 3 WSW 1013,5 20 0,0
02.07.2020 08:00:00 21,2 8,8 4 2 NNW 1013,6 20 -
02.07.2020 07:00:00 21,8 8,3 2 1 W 1013,1 20 0,0
02.07.2020 06:00:00 22,0 8,1 2 1 S 1012,8 20 0,0
02.07.2020 05:00:00 22,3 7,7 5 3 NNE 1012,6 20 -
02.07.2020 04:00:00 23,4 7,9 11 6 N 1012,4 20 0,0
02.07.2020 03:00:00 25,5 7,6 5 3 N 1012,1 20 0,0
02.07.2020 02:00:00 26,4 8,4 15 8 NNW 1012,0 9 -
02.07.2020 01:00:00 26,5 8,5 5 3 WNW 1011,7 20 0,0
02.07.2020 00:00:00 27,8 7,6 2 1 W 1011,4 20 0,0
01.07.2020 23:00:00 29,3 6,6 9 5 WNW 1010,7 20 -
01.07.2020 22:00:00 31,2 6,3 16 9 WNW 1009,6 20 0,0
01.07.2020 21:00:00 33,6 6,0 21 11 WNW 1008,7 20 0,0
01.07.2020 20:00:00 34,8 5,3 24 13 WNW 1008,1 20 -
01.07.2020 19:00:00 35,6 5,9 21 11 WNW 1007,8 20 0,0
01.07.2020 18:00:00 36,1 6,3 22 12 WNW 1008,1 20 0,0
01.07.2020 17:00:00 35,9 8,7 26 14 W 1008,4 20 -
01.07.2020 16:00:00 35,0 8,7 26 14 W 1008,9 20 0,0
01.07.2020 15:00:00 34,3 9,5 22 12 W 1009,2 20 0,0
01.07.2020 14:00:00 34,5 9,0 18 10 WSW 1009,5 20 -
01.07.2020 13:00:00 31,7 11,0 24 13 W 1010,2 20 0,0
01.07.2020 12:00:00 30,3 10,3 26 14 W 1010,7 20 0,0
01.07.2020 11:00:00 29,4 10,5 16 9 WNW 1010,7 20 -
01.07.2020 10:00:00 27,9 9,2 15 8 WNW 1011,1 20 0,0
01.07.2020 09:00:00 26,6 9,4 8 4 W 1011,0 20 0,0
01.07.2020 08:00:00 23,5 8,0 5 3 WSW 1011,3 20 -
01.07.2020 07:00:00 23,4 9,0 5 3 WSW 1010,8 20 0,0
01.07.2020 06:00:00 24,8 8,7 13 7 W 1010,2 20 0,0
01.07.2020 05:00:00 25,5 9,3 15 8 W 1009,7 20 -
01.07.2020 04:00:00 26,3 9,6 16 9 W 1009,4 20 0,0
01.07.2020 03:00:00 27,1 9,4 18 10 W 1009,4 20 0,0
01.07.2020 02:00:00 28,3 9,1 22 12 W 1009,1 20 -
01.07.2020 01:00:00 29,0 8,6 18 10 W 1008,9 18 0,0
01.07.2020 00:00:00 29,2 8,8 9 5 WNW 1008,1 20 0,0
30.06.2020 23:00:00 31,3 5,7 11 6 NW 1007,5 20 -
30.06.2020 22:00:00 32,9 5,4 15 8 WNW 1006,5 20 0,0
30.06.2020 21:00:00 35,5 9,1 18 10 W 1005,4 20 0,0
30.06.2020 20:00:00 37,5 4,4 26 14 W 1004,7 20 -
30.06.2020 19:00:00 38,3 7,1 26 14 W 1004,4 20 0,0
30.06.2020 18:00:00 39,6 8,1 16 9 WSW 1004,5 20 0,0
30.06.2020 17:00:00 39,8 7,3 16 9 WSW 1004,9 19 -
30.06.2020 16:00:00 38,9 8,5 11 6 WSW 1005,6 19 0,0
30.06.2020 15:00:00 37,8 9,4 15 8 NW 1006,6 20 0,0
30.06.2020 14:00:00 36,6 10,0 16 9 W 1007,7 20 -
30.06.2020 13:00:00 34,1 10,7 5 3 WNW 1008,8 20 0,0
30.06.2020 12:00:00 32,1 12,3 11 6 E 1009,2 20 0,0
30.06.2020 11:00:00 29,6 12,9 9 5 ESE 1010,1 20 -
30.06.2020 10:00:00 26,9 12,5 13 7 E 1010,9 20 0,0
30.06.2020 09:00:00 24,7 11,6 15 8 E 1011,3 20 0,0
30.06.2020 08:00:00 22,2 11,0 8 4 ESE 1011,7 20 -
30.06.2020 07:00:00 21,0 9,3 8 4 E 1011,8 20 0,0
30.06.2020 06:00:00 22,3 8,4 4 2 S 1011,1 20 0,0
30.06.2020 05:00:00 23,7 6,9 4 2 E 1010,6 20 -
30.06.2020 04:00:00 24,3 7,0 4 2 SSE 1010,6 20 0,0
30.06.2020 03:00:00 26,4 6,4 2 1 WSW 1010,4 20 0,0
30.06.2020 02:00:00 27,5 5,7 5 3 NW 1010,4 20 -
30.06.2020 01:00:00 28,0 6,1 2 1 SSW 1010,4 20 0,0
30.06.2020 00:00:00 28,8 6,8 4 2 S 1010,3 20 0,0
29.06.2020 23:00:00 31,1 5,5 11 6 NW 1009,7 20 -
29.06.2020 22:00:00 32,9 8,4 11 6 WNW 1008,9 20 0,0
29.06.2020 21:00:00 35,5 9,1 16 9 NW 1008,2 20 0,0
29.06.2020 20:00:00 37,2 9,7 15 8 WNW 1007,8 20 -
29.06.2020 19:00:00 37,6 10,0 16 9 WNW 1007,9 20 0,0
29.06.2020 18:00:00 37,7 9,3 18 10 W 1008,6 18 0,0
29.06.2020 17:00:00 38,0 10,4 11 6 WNW 1009,0 20 -
29.06.2020 16:00:00 37,1 10,4 18 10 NW 1009,9 20 0,0
29.06.2020 15:00:00 36,4 11,3 13 7 W 1010,8 20 0,0

tt = temperature
td = dewpoint
ff = wind speed
dd = wind direction
ppp = reduced air pressure
vv = visibility
rr = precipitation

Next stations